Location: Baumgartsau
(48.4586°N, 14.0864°E)
Time: 13:32:08
(UTC+00:00)

Cosmos 2360 Rocket - Visible Passes

Search period start: 06 August 2020 00:00
Search period end: 16 August 2020 00:00
Orbit: 832 x 847 km, 71.0° (Epoch: 05 August)

Date Brightness Start Highest point End Pass type
(mag) Time Alt. Az. Time Alt. Az. Time Alt. Az.
06 Aug 4.4 00:48:41 10° W 00:49:04 10° W 00:49:04 10° W visible
06 Aug 3.8 21:01:48 10° N 21:06:30 26° NE 21:09:55 15° E visible
06 Aug 2.1 22:45:24 10° NNW 22:51:04 71° WSW 22:51:39 65° SSW visible
07 Aug 4.3 00:32:20 10° WNW 00:33:24 11° W 00:33:24 11° W visible
07 Aug 3.8 20:46:07 10° N 20:50:45 25° NE 20:54:17 14° E visible
07 Aug 2.1 22:29:40 10° NNW 22:35:21 75° WSW 22:36:01 66° SSW visible
08 Aug 4.3 00:16:12 10° WNW 00:17:46 12° W 00:17:46 12° W visible
08 Aug 3.9 20:30:26 10° N 20:34:58 24° NE 20:38:41 13° E visible
08 Aug 2.1 22:13:56 10° NNW 22:19:39 79° WSW 22:20:25 66° S visible
09 Aug 4.3 00:00:11 10° WNW 00:02:10 13° W 00:02:10 13° W visible
09 Aug 3.9 20:14:45 10° N 20:19:12 23° NE 20:23:06 12° E visible
09 Aug 2.1 21:58:13 10° NNW 22:03:55 83° WSW 22:04:51 64° SSE visible
09 Aug 4.2 23:44:11 10° WNW 23:46:36 14° W 23:46:36 14° W visible
10 Aug 3.9 19:59:04 10° N 20:03:25 22° NE 20:07:34 11° E visible
10 Aug 2.1 21:42:29 10° NNW 21:48:12 87° WSW 21:49:18 60° SSE visible
10 Aug 4.2 23:28:16 10° WNW 23:31:03 15° W 23:31:03 15° W visible
11 Aug 3.9 19:43:23 10° N 19:47:38 21° NE 19:51:52 10° E visible
11 Aug 2.1 21:26:45 10° NNW 21:32:29 88° ENE 21:33:48 55° SSE visible
11 Aug 4.1 23:12:22 10° WNW 23:15:33 16° W 23:15:33 16° W visible
12 Aug 4.0 19:27:42 10° N 19:31:51 20° NE 19:35:59 10° E visible
12 Aug 2.1 21:11:02 10° NNW 21:16:45 84° ENE 21:18:19 50° SE visible
12 Aug 4.1 22:56:28 10° WNW 23:00:00 17° W 23:00:04 17° W visible
13 Aug 4.0 19:12:02 10° N 19:16:05 19° NE 19:20:05 10° E visible
13 Aug 2.1 20:55:19 10° NNW 21:01:02 80° ENE 21:02:52 45° SE visible
13 Aug 4.0 22:40:36 10° WNW 22:44:19 18° W 22:44:37 18° WSW visible
14 Aug 4.0 18:56:22 10° N 19:00:17 19° NE 19:04:11 10° E visible
14 Aug 2.2 20:39:35 10° NNW 20:45:18 76° ENE 20:47:27 39° SE visible
14 Aug 3.9 22:24:45 10° NW 22:28:39 19° W 22:29:12 19° WSW visible
15 Aug 2.2 20:23:52 10° NNW 20:29:34 72° ENE 20:32:04 34° SE visible
15 Aug 3.9 22:08:54 10° NW 22:12:58 21° W 22:13:49 20° WSW visible
